Retour au catalogue

RUBIN 2

ActifRadio amateurLEO
NORAD 27605·PAYLOAD·🇩🇪 Germany

Lancé Dec 20, 2002 depuis Baikonur Cosmodrome

Loading…

Prochains Passages (prochaines 24 heures)

TLE

FraisSource: Space-Track

Époque: Sep 14, 2026, 21:32 UTC

1 27605U 02058A   26257.89759628  .00000370  00000-0  66578-4 0  9997
2 27605  64.5526 214.5056 0075756 246.2459 113.0687 14.79536082277855

Suivez RUBIN 2 en temps réel avec AllMySat

Download on the App Store